sat.trackr.live / text

‹ back to catalog

CAS500-2

NORAD 69013 · 2026-100AK

PAYLOAD ACTIVE UNKNOWN

§ Identity

Operator
Country
SKOR
Launch date
2026-05-03
Launch site
AFWTR
Launch vehicle
Mass (kg)
RCS (m²)

Purposes: earth_obs

External: N2YO · Heavens-Above · Gunter

§ Orbital elements

Epoch: 2026-05-25T04:25:26.173344Z

Period
94.71 min
Inclination
97.4097°
Eccentricity
0.0009292
Mean motion
15.20412824 rev/d
Perigee alt
498.2 km
Apogee alt
511.0 km
Semi-major
6,882.7 km
B*
2.8186e-4
RAAN
43.4347°
Arg perigee
98.9705°
Mean anomaly
261.2583°
Rev number
331

§ Raw data

CAS500-21 69013U 26100AK  26145.18433071  .00006083  00000+0  28186-3 0  99972 69013  97.4097  43.4347 0009292  98.9705 261.2583 15.20412824  3315

JSON: /api/v1/satellites/69013 · /tle

For live sub-satellite position, see the globe view (requires WebGL).

§ Visibility from observer

Set your observer location to see the next 7 days of passes ≥ 10°. The values pass through the URL so the page stays shareable.

No JS? Fill the form by hand. The geolocation button needs JavaScript.